Weather History for Elkhart, KS

Change the Weather History Date:

Wednesday, February 20, 2013

  Actual Average Record
Temperature  
Mean Temperature 34 °F -  
Max Temperature 39 °F 50 °F 70 °F (2000)
Min Temperature 30 °F 25 °F 7 °F (2006)
Degree Days  
Heating Degree Days 30    
Moisture  
Dew Point 26 °F    
Average Humidity 73    
Maximum Humidity 89    
Minimum Humidity 43    
Precipitation  
Precipitation 0.00 in - - ()
Wind  
Wind Speed 20 mph (SE)    
Max Wind Speed 29 mph    
Max Gust Speed -    
Averages and records for this station are not official NWS values.
T = Trace of Precipitation, MM = Missing Value Source: NWS Daily Summary

Daily Weather History Graph

Daily Weather History Graph

Search for Another Location

Airport:

Trip Planner

Search our weather history database for the weather conditions in past years. The results will help you decide how hot, cold, wet, or windy it might be!

Date:

Astronomy

Feb. 20, 2013 Rise Set
Actual Time 7:29 AM CST 6:33 PM CST
Civil Twilight 7:03 AM CST 6:59 PM CST
Nautical Twilight 6:33 AM CST 7:29 PM CST
Astronomical Twilight 6:03 AM CST 7:59 PM CST
Moon 2:00 PM CST (2/20) 3:47 AM CST (2/20)
Length of Visible Light 11h 56m
Length of Day
11h 03m
Waxing Gibbous, 76% of the Moon is Illuminated
Feb 20
Waxing Gibbous
Feb 25
Full
Mar 4
Last Quarter
Mar 11
New
Mar 19
First Quarter

Hourly Weather History & Observations

Time (CST) Temp. Windchill Dew Point Humidity Pressure Visibility Wind Dir Wind Speed Gust Speed Precip Events Conditions
12:08 AM 32.0 °F 21.2 °F 15.1 °F 50% - - SE 16.1 mph - N/A   Unknown
12:28 AM 32.0 °F 21.2 °F 15.1 °F 50% - - SE 16.1 mph - N/A   Unknown
12:48 AM 34.0 °F 24.2 °F 16.2 °F 48% - - ESE 15.0 mph - N/A   Unknown
1:08 AM 35.1 °F 25.2 °F 16.2 °F 46% - - ESE 16.1 mph - N/A   Unknown
1:28 AM 35.1 °F 25.2 °F 16.2 °F 46% - - ESE 16.1 mph - N/A   Unknown
1:48 AM 37.0 °F 27.0 °F 16.2 °F 43% - - SE 18.4 mph - N/A   Unknown
2:08 AM 39.0 °F 29.0 °F 18.1 °F 43% - - SE 20.7 mph - N/A   Unknown
2:28 AM 37.9 °F 26.8 °F 21.0 °F 51% - - SSE 24.2 mph - N/A   Unknown
2:48 AM 35.1 °F 23.3 °F 23.0 °F 61% - - SE 23.0 mph - N/A   Unknown
3:08 AM 33.1 °F 21.2 °F 23.0 °F 66% - - SE 20.7 mph - N/A   Unknown
3:28 AM 32.0 °F 20.5 °F 23.0 °F 69% - - SE 18.4 mph - N/A   Unknown
3:48 AM 32.0 °F 20.1 °F 24.1 °F 73% - - SE 19.6 mph - N/A   Unknown
4:08 AM 32.0 °F 19.5 °F 24.1 °F 73% - - SE 21.9 mph - N/A   Unknown
4:28 AM 32.0 °F 20.1 °F 24.1 °F 73% - - SE 19.6 mph - N/A   Unknown
4:48 AM 32.0 °F 20.1 °F 24.1 °F 73% - - ESE 19.6 mph - N/A   Unknown
5:08 AM 30.9 °F 19.4 °F 24.1 °F 76% - - ESE 17.3 mph - N/A   Unknown
5:28 AM 30.9 °F 19.4 °F 24.1 °F 76% - - ESE 17.3 mph - N/A   Unknown
5:48 AM 30.9 °F 18.4 °F 24.1 °F 76% - - ESE 20.7 mph - N/A   Unknown
6:08 AM 32.0 °F 20.1 °F 24.1 °F 73% - - ESE 19.6 mph - N/A   Unknown
6:28 AM 32.0 °F 19.8 °F 25.2 °F 76% - - ESE 20.7 mph - N/A   Unknown
6:48 AM 32.0 °F 20.8 °F 26.1 °F 79% - - ESE 17.3 mph - N/A   Unknown
7:08 AM 33.1 °F 21.5 °F 27.1 °F 79% - - SE 19.6 mph - N/A   Unknown
7:28 AM 34.0 °F 22.7 °F 28.0 °F 79% - - SE 19.6 mph - N/A   Unknown
7:48 AM 34.0 °F 22.7 °F 28.0 °F 79% - - SE 19.6 mph - N/A   Unknown
8:08 AM 35.1 °F 23.5 °F 28.0 °F 76% - - SE 21.9 mph - N/A   Unknown
8:28 AM 36.0 °F 24.4 °F 29.1 °F 76% - - SE 23.0 mph - N/A   Unknown
8:48 AM 36.0 °F 24.4 °F 29.1 °F 76% - - SE 23.0 mph - N/A   Unknown
9:08 AM 37.0 °F 25.9 °F 30.0 °F 76% - - SE 23.0 mph - N/A   Unknown
9:28 AM 37.0 °F 25.1 °F 30.0 °F 76% - - SE 26.5 mph - N/A   Unknown
9:48 AM 37.0 °F 25.9 °F 29.1 °F 73% - - SSE 23.0 mph - N/A   Unknown
10:08 AM 37.9 °F 27.1 °F 31.1 °F 76% - - SSE 23.0 mph - N/A   Unknown
10:28 AM 37.0 °F 25.9 °F 30.0 °F 76% - - SSE 23.0 mph - N/A   Unknown
10:48 AM 37.9 °F 27.3 °F 31.1 °F 76% - - SSE 21.9 mph - N/A   Unknown
11:08 AM 37.9 °F 26.6 °F 30.0 °F 73% - - SSE 25.3 mph - N/A   Unknown
11:28 AM 37.9 °F 26.6 °F 30.0 °F 73% - - SSE 25.3 mph - N/A   Unknown
11:48 AM 37.0 °F 25.6 °F 29.1 °F 73% - - SSE 24.2 mph - N/A   Unknown
12:08 PM 37.0 °F 25.6 °F 29.1 °F 73% - - SSE 24.2 mph - N/A   Unknown
12:28 PM 37.0 °F 25.9 °F 30.0 °F 76% - - SSE 23.0 mph - N/A   Unknown
12:48 PM 37.0 °F 25.4 °F 30.0 °F 76% - - SSE 25.3 mph - N/A   Unknown
1:08 PM 37.0 °F 25.9 °F 30.0 °F 76% - - SE 23.0 mph - N/A   Unknown
1:28 PM 37.0 °F 25.9 °F 29.1 °F 73% - - SE 23.0 mph - N/A   Unknown
1:48 PM 37.0 °F 25.6 °F 29.1 °F 73% - - SSE 24.2 mph - N/A   Unknown
2:08 PM 36.0 °F 23.9 °F 29.1 °F 76% - - SSE 25.3 mph - N/A   Unknown
2:28 PM 36.0 °F 24.4 °F 29.1 °F 76% - - SSE 23.0 mph - N/A   Unknown
2:48 PM 34.0 °F 21.5 °F 27.1 °F 76% - - SE 24.2 mph - N/A   Unknown
3:08 PM 34.0 °F 22.1 °F 28.0 °F 79% - - SE 21.9 mph - N/A   Unknown
3:28 PM 34.0 °F 22.1 °F 27.1 °F 76% - - SE 21.9 mph - N/A   Unknown
3:48 PM 35.1 °F 23.8 °F 28.0 °F 76% - - SE 20.7 mph - N/A   Unknown
4:08 PM 35.1 °F 23.3 °F 28.0 °F 76% - - SE 23.0 mph - N/A   Unknown
4:28 PM 35.1 °F 22.0 °F 27.1 °F 73% - - SE 28.8 mph - N/A   Unknown
4:48 PM 35.1 °F 22.7 °F 27.1 °F 73% - - SE 25.3 mph - N/A   Unknown
5:08 PM 34.0 °F 22.4 °F 28.0 °F 79% - - SE 20.7 mph - N/A   Unknown
5:28 PM 34.0 °F 21.8 °F 28.0 °F 79% - - SE 23.0 mph - N/A   Unknown
5:48 PM 34.0 °F 21.0 °F 26.1 °F 73% - - SE 26.5 mph - N/A   Unknown
6:08 PM 34.0 °F 22.1 °F 27.1 °F 76% - - SE 21.9 mph - N/A   Unknown
6:28 PM 34.0 °F 21.0 °F 26.1 °F 73% - - SE 26.5 mph - N/A   Unknown
6:48 PM 33.1 °F 19.6 °F 26.1 °F 75% - - SE 27.6 mph - N/A   Unknown
7:08 PM 33.1 °F 20.1 °F 26.1 °F 75% - - SE 25.3 mph - N/A   Unknown
7:28 PM 33.1 °F 20.9 °F 26.1 °F 75% - - SE 21.9 mph - N/A   Unknown
7:48 PM 33.1 °F 21.2 °F 26.1 °F 75% - - SE 20.7 mph - N/A   Unknown
8:08 PM 32.0 °F 19.2 °F 25.2 °F 76% - - SE 23.0 mph - N/A   Unknown
8:28 PM 32.0 °F 19.2 °F 27.1 °F 82% - - SE 23.0 mph - N/A   Unknown
8:48 PM 30.9 °F 18.1 °F 24.1 °F 76% - - ESE 21.9 mph - N/A   Unknown
9:08 PM 30.9 °F 18.4 °F 28.0 °F 89% - - SE 20.7 mph - N/A   Unknown
9:28 PM 30.9 °F 17.8 °F 27.1 °F 86% - - SE 23.0 mph - N/A   Unknown
9:48 PM 30.9 °F 17.8 °F 27.1 °F 86% - - SE 23.0 mph - N/A   Unknown
10:08 PM 30.9 °F 18.1 °F 27.1 °F 86% - - SE 21.9 mph - N/A   Unknown
10:28 PM 30.9 °F 16.9 °F 26.1 °F 82% - - SE 26.5 mph - N/A   Unknown
10:48 PM 30.9 °F 17.2 °F 25.2 °F 79% - - SE 25.3 mph - N/A   Unknown
11:08 PM 30.9 °F 17.5 °F 26.1 °F 82% - - SE 24.2 mph - N/A   Unknown
11:28 PM 30.9 °F 17.8 °F 25.2 °F 79% - - SE 23.0 mph - N/A   Unknown
11:48 PM 30.9 °F 18.1 °F 26.1 °F 82% - - SE 21.9 mph - N/A   Unknown